STARLINK-1582, 46043

Orbit data source: Space-Track

STARLINK-1582, 46043 is a payload satellite owned by SpaceX/Seattle (US) in LEO that was launched on Fri, 07 Aug 2020 UTC via an FALCON 9 launch vehicle from the Air Force Eastern Test Range (AFETR). Payload-class satellites include a variety of spacecraft equipped with specific instruments for various scientific and technological missions. These include communications satellites like Starlink; space stations such as the ISS; scientific satellites like the Hubble; Earth observation satellites from companies like Planet Labs, Umbra, and HawkEye 360; GPS; miniature CubeSats for education and research; and military/defense satellites.

Loading next visibility...
Identifier
46043, 2020-055S
Orbit
LEO
Country
Flag of USUS
Related business
Manufacturer
SpaceX/Seattle
Mission
Operational Commercial Communications
Bus & Motor
STARLINK, Unknown motor
Mass
260 kg wet, ~248 kg dry
Launch date (UTC)
2020-08-07 (6 years ago)
Launch vehicle
FALCON 9
Launch site
Air Force Eastern Test Range (AFETR)
Object type
Payload
Rocket body
Debris
Shape & HBR
Box + 1 Pan, 10.1 m
Radar Cross Section
13.562 m², Large (>1 m²)

Expand to show TLE details & history
Last TLE update: 22 hours ago

TLE from 22 hours ago
0 STARLINK-1582
1 46043U 20055S   26221.15869585  .00006359  00000-0  21637-3 0  9994
2 46043  53.1585 137.2338 0001641  66.2255 293.8919 15.31719786332244
Epoch: 2026-08-09T03:48Z
TLE epoch observation values (Epoch: 2026-08-09T03:48:31.321Z)
Latitude
0.00003°
Longitude
122.44362°
Altitude
471.126 km
Speed
7.632 km/s
True Right ascension
09h 08m 56s
True Declination
0° 00' 00"
Sunlit
Object was in daylight at epoch
Visualization orbit readout
Latitude
Unknown
Longitude
Unknown
Altitude
Unknown
Speed
Unknown
Apparent Right ascension
Unknown
Apparent Declination
Unknown
Sunlit
N/A
Visualization observer readout
Local Sidereal Time
16:02:45
Azimuth
Unknown
Elevation
Unknown
Doppler factor
Unknown
Orbital elements
Apogee altitude
472.062 km
Perigee altitude
469.814 km
Semi-major axis
6,849.075 km
Eccentricity
0.00016
Inclination
53.1585°
RAAN
137.2338°
Arg. of periapsis
66.2255°
True anomaly
293.87471°
Mean anomaly
293.8919°
Eccentric anomaly
293.8833°
Mean motion
3.82909 °/min
Orbital period
94.02 mins
BSTAR
0.00021637
Loading maneuver chart data...
Computing Atmospheric mass density...

Documentation

Showing up to 5 results
|